Weather History for Tehachapi, CA

Change the Weather History Date:

Monday, November 14, 2011

  Actual Average Record
Temperature  
Mean Temperature 42 °F -  
Max Temperature 55 °F 56 °F 71 °F (2013)
Min Temperature 30 °F 35 °F 26 °F (2012)
Degree Days  
Heating Degree Days 22    
Moisture  
Dew Point 37 °F    
Average Humidity 81    
Maximum Humidity 100    
Minimum Humidity 47    
Precipitation  
Precipitation 0.00 in - - ()
Sea Level Pressure  
Sea Level Pressure 30.02 in    
Wind  
Wind Speed 6 mph (NW)    
Max Wind Speed 18 mph    
Max Gust Speed 22 mph    
Visibility 7 miles    
Events      
Averages and records for this station are not official NWS values.
T = Trace of Precipitation, MM = Missing Value Source: NWS Daily Summary

Daily Weather History Graph

Daily Weather History Graph

Search for Another Location

Airport:

Trip Planner

Search our weather history database for the weather conditions in past years. The results will help you decide how hot, cold, wet, or windy it might be!

Date:

Astronomy

Nov. 14, 2011 Rise Set
Actual Time 6:27 AM PST 4:48 PM PST
Civil Twilight 6:00 AM PST 5:15 PM PST
Nautical Twilight 5:29 AM PST 5:46 PM PST
Astronomical Twilight 4:59 AM PST 6:16 PM PST
Moon 8:02 PM PST (11/14) 9:46 AM PST (11/14)
Length of Visible Light 11h 15m
Length of Day
10h 21m
Waning Gibbous, 86% of the Moon is Illuminated
Nov 14
Waning Gibbous
Nov 18
Last Quarter
Nov 24
New
Dec 2
First Quarter
Dec 10
Full

Hourly Weather History & Observations

Time (PST) Temp. Windchill Dew Point Humidity Pressure Visibility Wind Dir Wind Speed Gust Speed Precip Events Conditions
12:15 AM 35.6 °F 32.8 °F 33.8 °F 93% 30.04 in 5.0 mi East 3.5 mph - N/A   Clear
12:35 AM 35.6 °F - 33.8 °F 93% 30.04 in 4.0 mi Calm Calm - N/A   Clear
12:55 AM 33.8 °F - 33.8 °F 100% 30.03 in 5.0 mi Calm Calm - N/A   Clear
1:35 AM 32.0 °F 28.7 °F 32.0 °F 100% 30.02 in 7.0 mi SSE 3.5 mph - N/A   Clear
1:55 AM 32.0 °F - 32.0 °F 100% 30.02 in 5.0 mi Calm Calm - N/A   Clear
2:15 AM 32.0 °F - 32.0 °F 100% 30.01 in 3.0 mi Calm Calm - N/A   Clear
2:35 AM 32.0 °F - 32.0 °F 100% 30.00 in 5.0 mi Calm Calm - N/A   Clear
2:55 AM 32.0 °F - 32.0 °F 100% 30.00 in 6.0 mi Calm Calm - N/A   Clear
3:15 AM 32.0 °F - 32.0 °F 100% 30.00 in 5.0 mi Calm Calm - N/A   Clear
3:35 AM 30.2 °F 26.7 °F 30.2 °F 100% 30.00 in 6.0 mi NNW 3.5 mph - N/A   Clear
4:15 AM 37.4 °F 30.3 °F 37.4 °F 100% 30.00 in 7.0 mi NW 10.4 mph - N/A   Clear
4:35 AM 37.4 °F 32.8 °F 35.6 °F 93% 30.01 in 6.0 mi West 5.8 mph - N/A   Clear
4:55 AM 37.4 °F 32.1 °F 35.6 °F 93% 30.01 in 6.0 mi West 6.9 mph - N/A   Clear
5:35 AM 37.4 °F 32.8 °F 37.4 °F 100% 30.01 in 3.0 mi West 5.8 mph - N/A   Clear
5:55 AM 37.4 °F 33.8 °F 37.4 °F 100% 30.01 in 2.5 mi West 4.6 mph - N/A   Clear
6:35 AM 37.4 °F 33.8 °F 37.4 °F 100% 30.02 in 1.0 mi West 4.6 mph - N/A   Clear
6:55 AM 39.2 °F 37.0 °F 39.2 °F 100% 30.02 in 1.0 mi WSW 3.5 mph - N/A   Clear
7:15 AM 39.2 °F 37.0 °F 39.2 °F 100% 30.02 in 1.2 mi SW 3.5 mph - N/A   Clear
7:35 AM 41.0 °F - 41.0 °F 100% 30.02 in 1.5 mi Calm Calm - N/A   Clear
7:55 AM 44.6 °F 40.7 °F 44.6 °F 100% 30.02 in 3.0 mi NNW 6.9 mph - N/A   Clear
8:35 AM 46.4 °F 41.5 °F 42.8 °F 87% 30.03 in 5.0 mi NNW 10.4 mph - N/A   Clear
8:55 AM 46.4 °F 41.1 °F 41.0 °F 81% 30.03 in 8.0 mi NW 11.5 mph - N/A   Clear
9:15 AM 48.2 °F - 41.0 °F 76% 30.02 in 8.0 mi WNW 9.2 mph - N/A   Clear
9:35 AM 50.0 °F - 39.2 °F 66% 30.02 in 10.0 mi WNW 11.5 mph - N/A   Clear
10:15 AM 53.6 °F - 39.2 °F 58% 30.02 in 9.0 mi NW 12.7 mph - N/A   Clear
10:35 AM 53.6 °F - 37.4 °F 54% 30.01 in 10.0 mi WNW 12.7 mph - N/A   Clear
11:15 AM 55.4 °F - 37.4 °F 51% 29.98 in 9.0 mi NW 15.0 mph - N/A   Clear
11:35 AM 55.4 °F - 39.2 °F 54% 29.98 in 8.0 mi NNW 18.4 mph 21.9 mph N/A   Clear
11:55 AM 55.4 °F - 39.2 °F 54% 29.98 in 9.0 mi NW 15.0 mph - N/A   Clear
12:15 PM 55.4 °F - 39.2 °F 54% 29.97 in 8.0 mi NNW 16.1 mph 21.9 mph N/A   Clear
12:35 PM 55.4 °F - 39.2 °F 54% 29.96 in 9.0 mi NW 15.0 mph 21.9 mph N/A   Clear
12:55 PM 55.4 °F - 39.2 °F 54% 29.96 in 9.0 mi NW 15.0 mph - N/A   Clear
1:15 PM 55.4 °F - 39.2 °F 54% 29.96 in 10.0 mi NW 17.3 mph 21.9 mph N/A   Clear
1:35 PM 55.4 °F - 35.6 °F 47% 29.96 in 9.0 mi NW 16.1 mph 20.7 mph N/A   Clear
1:55 PM 53.6 °F - 37.4 °F 54% 29.96 in 10.0 mi WNW 16.1 mph - N/A   Clear
2:15 PM 53.6 °F - 37.4 °F 54% 29.97 in 10.0 mi NW 16.1 mph 20.7 mph N/A   Clear
2:35 PM 50.0 °F - 37.4 °F 62% 29.98 in 10.0 mi WNW 9.2 mph - N/A   Clear
2:55 PM 53.6 °F - 37.4 °F 54% 29.98 in 9.0 mi WNW 10.4 mph - N/A   Clear
3:15 PM 53.6 °F - 37.4 °F 54% 29.98 in 10.0 mi NW 11.5 mph - N/A   Clear
3:35 PM 51.8 °F - 39.2 °F 62% 29.98 in 9.0 mi NW 13.8 mph - N/A   Clear
3:55 PM 50.0 °F - 39.2 °F 66% 29.98 in 9.0 mi NW 15.0 mph - N/A   Clear
4:15 PM 50.0 °F - 39.2 °F 66% 29.98 in 9.0 mi NW 12.7 mph 17.3 mph N/A   Clear
4:35 PM 48.2 °F - 39.2 °F 71% 29.99 in 9.0 mi WNW 9.2 mph - N/A   Clear
4:55 PM 46.4 °F 42.9 °F 39.2 °F 76% 29.99 in 8.0 mi NW 6.9 mph - N/A   Clear
5:15 PM 46.4 °F 41.9 °F 39.2 °F 76% 29.99 in 10.0 mi NW 9.2 mph - N/A   Clear
5:35 PM 46.4 °F 42.4 °F 39.2 °F 76% 30.00 in 10.0 mi WNW 8.1 mph - N/A   Clear
5:55 PM 44.6 °F 42.2 °F 39.2 °F 81% 30.02 in 10.0 mi NW 4.6 mph - N/A   Clear
6:15 PM 44.6 °F 40.2 °F 39.2 °F 81% 30.02 in 9.0 mi WNW 8.1 mph - N/A   Partly Cloudy
6:35 PM 44.6 °F 43.1 °F 39.2 °F 81% 30.03 in 8.0 mi NNW 3.5 mph - N/A   Clear
7:15 PM 41.0 °F 39.0 °F 39.2 °F 93% 30.04 in 7.0 mi North 3.5 mph - N/A   Clear
7:35 PM 41.0 °F - 39.2 °F 93% 30.04 in 7.0 mi Calm Calm - N/A   Clear
7:55 PM 41.0 °F - 37.4 °F 87% 30.05 in 7.0 mi Calm Calm - N/A   Clear
8:15 PM 39.2 °F - 37.4 °F 93% 30.06 in 6.0 mi Calm Calm - N/A   Clear
8:35 PM 39.2 °F - 37.4 °F 93% 30.06 in 6.0 mi Calm Calm - N/A   Clear
8:55 PM 39.2 °F - 37.4 °F 93% 30.07 in 6.0 mi Calm Calm - N/A   Clear
9:15 PM 37.4 °F - 35.6 °F 93% 30.08 in 5.0 mi Calm Calm - N/A   Clear
9:35 PM 35.6 °F - 35.6 °F 100% 30.08 in 5.0 mi Calm Calm - N/A   Clear
9:55 PM 35.6 °F - 33.8 °F 93% 30.08 in 5.0 mi Calm Calm - N/A   Clear
10:15 PM 37.4 °F - 35.6 °F 93% 30.08 in 5.0 mi Calm Calm - N/A   Clear
10:35 PM 37.4 °F - 35.6 °F 93% 30.09 in 5.0 mi Calm Calm - N/A   Clear
10:55 PM 37.4 °F 33.8 °F 35.6 °F 93% 30.09 in 5.0 mi WSW 4.6 mph - N/A   Clear
11:35 PM 39.2 °F - 37.4 °F 93% 30.10 in 5.0 mi Calm Calm - N/A   Scattered Clouds
11:55 PM 41.0 °F 38.0 °F 39.2 °F 93% 30.10 in 5.0 mi West 4.6 mph - N/A   Scattered Clouds